When you browse on this site, cookies collect data to enhance your experience and personalize the content and advertising you see.
Visit our Privacy Policy to learn more. By continuing to use the site, you agree to this use of cookies and data.
  • In Spain
  • List of Countries
  • For 7 days
  • Water Temperature
  • Weather Map
  • Weather Widgets
  • user-avatar
    Login

    Hourly Weather Gwatemala

    Today, 26 February, Wednesday

    Time Temperature Precipitation Wind Pressure Humidity
    00:00 +18°C° 0 mm 1 mps 637 mmHg 95%
    01:00 +16°C° 0 mm 1 mps 636 mmHg 95%
    02:00 +16°C° 0 mm 1 mps 636 mmHg 95%
    03:00 +15°C° 0 mm 0 mps 635 mmHg 95%
    04:00 +14°C° 0 mm 0 mps 635 mmHg 95%
    05:00 +14°C° 0 mm 0 mps 635 mmHg 95%
    06:00 +14°C° 0 mm 0 mps 636 mmHg 94%
    07:00 +17°C° 0 mm 0 mps 637 mmHg 83%
    08:00 +21°C° 0 mm 1 mps 639 mmHg 71%
    09:00 +24°C° 0 mm 1 mps 640 mmHg 60%
    10:00 +26°C° 0 mm 1 mps 640 mmHg 52%
    11:00 +28°C° 0 mm 1 mps 641 mmHg 45%
    12:00 +30°C° 0 mm 2 mps 641 mmHg 37%
    13:00 +29°C° 0.2 mm 2 mps 640 mmHg 43%
    14:00 +27°C° 0.2 mm 2 mps 639 mmHg 48%
    15:00 +26°C° 0.2 mm 2 mps 638 mmHg 53%
    16:00 +24°C° 0.4 mm 2 mps 638 mmHg 62%
    17:00 +23°C° 0.4 mm 1 mps 638 mmHg 72%
    18:00 +21°C° 0.4 mm 1 mps 637 mmHg 81%
    19:00 +20°C° 0.1 mm 1 mps 638 mmHg 83%
    20:00 +20°C° 0.1 mm 1 mps 638 mmHg 84%
    21:00 +19°C° 0.1 mm 1 mps 639 mmHg 86%
    22:00 +19°C° 0 mm 1 mps 638 mmHg 87%
    23:00 +18°C° 0 mm 1 mps 638 mmHg 89%

    Tomorrow, 27 February, Thursday

    Time Temperature Precipitation Wind Pressure Humidity
    00:00 +17°C° 0 mm 2 mps 638 mmHg 90%
    01:00 +16°C° 0 mm 2 mps 638 mmHg 91%
    02:00 +16°C° 0 mm 2 mps 638 mmHg 92%
    03:00 +16°C° 0 mm 2 mps 637 mmHg 92%
    04:00 +16°C° 0 mm 2 mps 638 mmHg 92%
    05:00 +16°C° 0 mm 2 mps 638 mmHg 92%
    06:00 +16°C° 0 mm 2 mps 638 mmHg 92%
    07:00 +17°C° 0 mm 3 mps 639 mmHg 84%
    08:00 +18°C° 0 mm 4 mps 640 mmHg 75%
    09:00 +19°C° 0 mm 4 mps 641 mmHg 66%
    10:00 +20°C° 0 mm 4 mps 641 mmHg 60%
    11:00 +21°C° 0 mm 4 mps 641 mmHg 54%
    12:00 +22°C° 0 mm 5 mps 641 mmHg 48%
    13:00 +22°C° 0 mm 4 mps 641 mmHg 48%
    14:00 +22°C° 0 mm 4 mps 641 mmHg 48%
    15:00 +22°C° 0 mm 4 mps 640 mmHg 48%
    16:00 +21°C° 0 mm 4 mps 640 mmHg 53%
    17:00 +19°C° 0 mm 3 mps 639 mmHg 59%
    18:00 +17°C° 0 mm 3 mps 639 mmHg 65%
    19:00 +16°C° 0 mm 3 mps 639 mmHg 72%
    20:00 +13°C° 0 mm 3 mps 639 mmHg 80%
    21:00 +12°C° 0 mm 3 mps 639 mmHg 88%
    22:00 +12°C° 0 mm 3 mps 639 mmHg 88%
    23:00 +12°C° 0 mm 3 mps 639 mmHg 88%

    Day after tomorrow, 28 February, Friday

    Time Temperature Precipitation Wind Pressure Humidity
    00:00 +11°C° 0 mm 3 mps 639 mmHg 88%
    01:00 +11°C° 0 mm 3 mps 638 mmHg 88%
    02:00 +11°C° 0 mm 3 mps 638 mmHg 88%
    03:00 +11°C° 0 mm 3 mps 638 mmHg 88%
    04:00 +11°C° 0 mm 3 mps 638 mmHg 88%
    05:00 +12°C° 0 mm 2 mps 638 mmHg 88%
    06:00 +12°C° 0 mm 2 mps 638 mmHg 88%
    07:00 +13°C° 0 mm 3 mps 639 mmHg 82%
    08:00 +14°C° 0 mm 3 mps 640 mmHg 75%
    09:00 +17°C° 0 mm 3 mps 641 mmHg 69%
    10:00 +19°C° 0 mm 3 mps 641 mmHg 61%
    11:00 +21°C° 0 mm 3 mps 642 mmHg 53%
    12:00 +25°C° 0 mm 3 mps 642 mmHg 45%
    13:00 +25°C° 0 mm 3 mps 642 mmHg 43%
    14:00 +26°C° 0 mm 3 mps 641 mmHg 42%
    15:00 +26°C° 0 mm 3 mps 641 mmHg 41%
    16:00 +24°C° 0 mm 3 mps 641 mmHg 48%
    17:00 +21°C° 0 mm 3 mps 641 mmHg 55%
    18:00 +20°C° 0 mm 3 mps 640 mmHg 62%
    19:00 +18°C° 0 mm 3 mps 640 mmHg 70%
    20:00 +16°C° 0 mm 3 mps 640 mmHg 79%
    21:00 +14°C° 0 mm 3 mps 640 mmHg 88%
    22:00 +13°C° 0 mm 3 mps 640 mmHg 88%
    23:00 +13°C° 0 mm 3 mps 640 mmHg 89%

    29 February, Saturday

    Time Temperature Precipitation Wind Pressure Humidity
    00:00 +13°C° 0 mm 3 mps 640 mmHg 90%
    01:00 +13°C° 0 mm 3 mps 639 mmHg 89%
    02:00 +12°C° 0 mm 3 mps 639 mmHg 89%
    03:00 +12°C° 0 mm 3 mps 638 mmHg 89%
    04:00 +12°C° 0 mm 3 mps 638 mmHg 89%
    05:00 +12°C° 0 mm 3 mps 639 mmHg 89%
    06:00 +12°C° 0 mm 3 mps 639 mmHg 89%
    07:00 +13°C° 0 mm 3 mps 640 mmHg 81%
    08:00 +16°C° 0 mm 3 mps 641 mmHg 73%
    09:00 +17°C° 0 mm 3 mps 641 mmHg 65%
    10:00 +19°C° 0 mm 3 mps 642 mmHg 58%
    11:00 +21°C° 0 mm 4 mps 642 mmHg 51%
    12:00 +23°C° 0 mm 4 mps 642 mmHg 45%
    13:00 +23°C° 0 mm 4 mps 641 mmHg 45%
    14:00 +23°C° 0 mm 4 mps 641 mmHg 45%
    15:00 +23°C° 0 mm 4 mps 641 mmHg 44%
    16:00 +21°C° 0 mm 3 mps 640 mmHg 51%
    17:00 +19°C° 0 mm 3 mps 640 mmHg 58%
    18:00 +17°C° 0 mm 3 mps 639 mmHg 65%
    19:00 +16°C° 0 mm 3 mps 639 mmHg 73%
    20:00 +13°C° 0 mm 3 mps 639 mmHg 81%
    21:00 +12°C° 0 mm 2 mps 639 mmHg 89%
    22:00 +11°C° 0 mm 3 mps 639 mmHg 90%
    23:00 +11°C° 0 mm 3 mps 638 mmHg 90%

    1 March, Sunday

    Time Temperature Precipitation Wind Pressure Humidity
    00:00 +11°C° 0 mm 3 mps 638 mmHg 90%
    01:00 +11°C° 0 mm 3 mps 638 mmHg 89%
    02:00 +10°C° 0 mm 2 mps 637 mmHg 88%
    03:00 +10°C° 0 mm 2 mps 637 mmHg 87%
    04:00 +10°C° 0 mm 2 mps 637 mmHg 87%
    05:00 +10°C° 0 mm 2 mps 637 mmHg 87%
    06:00 +9°C° 0 mm 2 mps 637 mmHg 87%
    07:00 +13°C° 0 mm 2 mps 638 mmHg 76%
    08:00 +15°C° 0 mm 2 mps 639 mmHg 65%
    09:00 +18°C° 0 mm 2 mps 640 mmHg 55%
    10:00 +21°C° 0 mm 2 mps 641 mmHg 46%
    11:00 +24°C° 0 mm 2 mps 641 mmHg 38%
    12:00 +27°C° 0 mm 2 mps 642 mmHg 29%
    13:00 +27°C° 0 mm 2 mps 641 mmHg 28%
    14:00 +28°C° 0 mm 2 mps 640 mmHg 27%
    15:00 +28°C° 0 mm 2 mps 640 mmHg 26%
    16:00 +25°C° 0 mm 1 mps 639 mmHg 36%
    17:00 +23°C° 0 mm 1 mps 638 mmHg 46%
    18:00 +20°C° 0 mm 1 mps 638 mmHg 57%
    19:00 +18°C° 0 mm 1 mps 638 mmHg 65%
    20:00 +16°C° 0 mm 1 mps 637 mmHg 73%
    21:00 +14°C° 0 mm 2 mps 637 mmHg 81%
    22:00 +14°C° 0 mm 2 mps 637 mmHg 84%
    23:00 +13°C° 0 mm 1 mps 637 mmHg 88%

    2 March, Monday

    Time Temperature Precipitation Wind Pressure Humidity
    00:00 +12°C° 0 mm 1 mps 636 mmHg 92%
    01:00 +12°C° 0 mm 1 mps 636 mmHg 91%
    02:00 +12°C° 0 mm 1 mps 636 mmHg 90%
    03:00 +13°C° 0 mm 1 mps 635 mmHg 89%
    04:00 +12°C° 0 mm 1 mps 635 mmHg 88%
    05:00 +12°C° 0 mm 1 mps 636 mmHg 86%
    06:00 +12°C° 0 mm 1 mps 636 mmHg 84%
    07:00 +15°C° 0 mm 1 mps 637 mmHg 69%
    08:00 +19°C° 0 mm 1 mps 638 mmHg 55%
    09:00 +23°C° 0 mm 1 mps 640 mmHg 41%
    10:00 +25°C° 0 mm 1 mps 640 mmHg 34%
    11:00 +27°C° 0 mm 1 mps 641 mmHg 27%
    12:00 +29°C° 0 mm 1 mps 641 mmHg 20%
    13:00 +29°C° 0 mm 1 mps 640 mmHg 20%
    14:00 +29°C° 0 mm 2 mps 640 mmHg 21%
    15:00 +30°C° 0 mm 2 mps 639 mmHg 21%
    16:00 +27°C° 0 mm 1 mps 638 mmHg 31%
    17:00 +24°C° 0 mm 1 mps 637 mmHg 42%
    18:00 +21°C° 0 mm 1 mps 637 mmHg 53%
    19:00 +19°C° 0 mm 1 mps 636 mmHg 62%
    20:00 +18°C° 0 mm 1 mps 636 mmHg 70%
    21:00 +15°C° 0 mm 1 mps 636 mmHg 79%
    22:00 +15°C° 0 mm 1 mps 636 mmHg 78%
    23:00 +14°C° 0 mm 1 mps 636 mmHg 77%
    Show more